Location: Góry Miechowskie
(50.3599°N, 20.1803°E)
Time: 22:40:08
(UTC+00:00)

Transit 2A Rocket - Pass Details

Date: 20 September 2024
Orbit: 582 x 908 km, 66.7° (Epoch: 09 October)

Event Time Altitude Azimuth Distance (km) Brightness Sun altitude
Exits shadow 22:38:21 31° 359° (N) 1,536 6.9 -39.0°
Drops below altitude 10° 22:42:08 10° 30° (NNE) 2,584 8.3 -39.0°
Sets 22:44:49 0° 38° (NE) 3,504 9.1 -39.0°
